User: anonymous   Login
Location: La Silve
(44.2414°N, 5.8889°E)
Time: 20:52:45
(UTC+00:00)
Language:

Cosmos 1821 Rocket - Orbit

View from above orbital plane
View from above orbital plane
View from above satellite
View from above satellite

Ground track
Ground track

The orbit data is extracted from the following two-line orbital elements,

1 17526U 87017B   21055.51232353  .00000095  00000-0  80656-4 0  9994
2 17526  82.9001 112.5564 0041318 145.9211 214.4612 13.76888743691637
Epoch (UTC): 24 February 2021 12:17:44
Eccentricity: 0.0041318
inclination: 82.9001°
perigee height: 944 km
apogee height: 1005 km
right ascension of ascending node: 112.5564°
argument of perigee: 145.9211°
revolutions per day: 13.76888743
mean anomaly at epoch: 214.4612°
orbit number at epoch: 69163

The dashed part of the orbit path shows where the satellite is in the earth's shadow,  

DLR